Home > Weather > Douala > Past weeks

Flag for Cameroon Past Weather in Douala, Cameroon — Yesterday and Last 2 Weeks

Now
81 °F

Passing clouds.


Feels Like: 86 °F
Forecast: 76 / 88 °F
Wind: 3 mph from West

Location: Douala Obs.

Current Time: Jun 28, 2016 at 7:46:19 PM

Latest Report: Jun 28, 2016 at 7:00 PM


Visibility: N/A

Pressure: 29.95 "Hg

Humidity: 84%

Dew Point: 75 °F

Location of DoualaLocation

Past Weather in Douala — Graph

°F

Douala Temperature Yesterday

Maximum temperature yesterday: 86 °F (at 2:00 PM)
Minimum temperature yesterday: 75 °F (at 7:00 AM)
Average temperature yesterday: 79 °F

High & Low Weather Summary for the Past Weeks

 TemperatureHumidityPressure
High90 °F (Jun 14, 2:00 PM)100% (Jun 13, 7:00 PM)30.04 "Hg (Jun 13, 7:00 PM)
Low73 °F (Jun 17, 2:00 AM)59% (Jun 14, 2:00 PM)29.86 "Hg (Jun 17, 4:00 PM)
Average79 °F87%29.94 "Hg
* Reported Jun 13 6:00 PM — Jun 28 6:00 PM, Douala, Weather by CustomWeather, © 2016

Note: Actual official high and low records may vary slightly from our data, if they occured in-between our weather recording intervals... More about our weather records

Advertising

Douala Weather History for the Previous 24 Hours

Scroll right to see more
 ConditionsComfort  
Time TempWeatherWind HumidityBarometerVisibility
6:00 PM
Tue, Jun 28
81 °FPartly sunny.6 mph84%29.92 "HgN/A
5:00 PM82 °FScattered clouds.7 mph84%29.89 "HgN/A
4:00 PM84 °FScattered clouds.5 mph74%29.89 "HgN/A
3:00 PM84 °FScattered clouds.8 mph79%29.89 "HgN/A
2:00 PM84 °FScattered clouds.7 mph74%29.95 "HgN/A
1:00 PM86 °FPartly sunny.5 mph66%29.95 "HgN/A
12:00 PM84 °FPartly sunny.2 mph70%29.98 "HgN/A
11:00 AM84 °FPartly sunny.5 mph66%29.98 "HgN/A
10:00 AM82 °FBroken clouds.3 mph74%30.01 "HgN/A
9:00 AM79 °FBroken clouds.No wind89%30.01 "Hg5 mi
8:00 AM77 °FBroken clouds.No wind94%29.98 "Hg4 mi
7:00 AM75 °FBroken clouds.1 mph100%29.98 "Hg4 mi
6:00 AM75 °FPassing clouds.No wind100%29.95 "HgN/A
5:00 AM77 °FPassing clouds.No wind94%29.98 "HgN/A
4:00 AM77 °FPassing clouds.No wind94%29.95 "HgN/A
3:00 AM77 °FPassing clouds.No wind94%29.95 "HgN/A
2:00 AM77 °FPartly cloudy.No wind94%29.98 "HgN/A
1:00 AM77 °FPartly cloudy.No wind94%29.98 "HgN/A
12:00 AM77 °FPartly cloudy.2 mph94%29.98 "HgN/A
11:00 PM
Mon, Jun 27
77 °FPartly cloudy.2 mph94%29.98 "HgN/A
10:00 PM79 °FPassing clouds.No wind79%29.98 "HgN/A
9:00 PM79 °FPassing clouds.3 mph79%29.98 "HgN/A
8:00 PM79 °FPassing clouds.2 mph84%29.95 "HgN/A
7:00 PM81 °FThunderstorms. Passing clouds.5 mph84%29.92 "HgN/A
Weather by CustomWeather, © 2016

See weather overviewHow to use our weather pages